Terminal Aerodrome Forecast
Issued by NWS Columbia, SC

Home | Current Version | Previous Version | Text Only | Print | Product List | Glossary On
Versions: 1 2 3 4 5 6 7 8 9 10 11 12 13 14 15 16 17 18 19 20 21 22 23 24 25 26 27 28 29 30 31 32 33 34 35 36 37 38 39 40
000
FTUS42 KCAE 022300
TAFCAE
TAF
KCAE 022326Z 0300/0324 04005KT P6SM BKN050
     FM030300 06006KT P6SM OVC015
     FM031000 07006KT 3SM -RA BR OVC007 WS020/16028KT=

USA.gov is the U.S. government's official web portal to all federal, state and local government web resources and services.